Wind_Speed
33 38 40 41 40 39 38 36 35 34 32 31 30 30 30 29 28 26 25 24 23 23 23 21 20 20 21 20 19 18 17 17 16 16 16 15 15 14 15 15 14 13 12 12 13 14 15 14 13 13 14 13 13 13 14 14 15 16 17 17 19 18 15 14 14 16 19 19 18 18 17 18 21 21 19 19 19 19 20 22 23 24 25 25 26
34 40 40 41 41 38 36 35 35 34 33 32 32 32 30 29 27 26 24 24 22 22 21 20 19 20 20 20 19 18 18 17 17 17 17 16 16 16 16 16 15 14 14 14 14 14 14 13 13 13 14 14 13 12 13 13 13 14 14 15 16 17 16 16 16 16 18 19 18 18 16 16 20 22 19 18 19 19 19 20 21 21 23 25 26
35 40 40 40 36 30 31 33 33 34 34 34 33 32 30 28 27 25 24 22 21 20 19 19 19 19 20 20 19 18 18 17 18 18 17 16 16 16 16 17 17 16 15 15 14 14 13 13 13 12 13 14 13 12 12 13 12 13 13 14 15 16 16 16 17 17 19 20 19 18 17 16 18 21 20 19 19 19 19 20 19 19 21 25 27
33 39 40 34 24 23 29 34 34 35 35 35 34 33 30 28 27 26 23 22 20 18 17 18 18 19 20 20 19 19 18 18 18 18 18 17 16 17 17 18 18 17 16 16 14 13 13 13 12 12 13 14 13 12 12 13 13 13 13 14 15 16 16 16 17 18 18 19 18 19 19 18 18 19 20 20 20 19 19 20 19 20 22 25 27
30 37 34 26 23 27 34 37 38 37 36 36 37 35 32 30 28 26 23 21 18 15 15 17 18 20 21 21 20 19 18 18 19 20 19 18 18 18 19 18 18 18 17 16 15 14 13 13 13 13 14 15 14 12 12 13 14 13 13 14 15 15 15 16 16 16 17 18 19 20 20 20 19 19 19 19 20 21 20 20 20 20 23 24 25
29 32 27 25 31 39 41 42 41 39 39 40 40 38 34 31 29 27 25 22 19 17 16 16 19 22 22 21 20 20 19 20 21 21 20 19 19 19 19 19 18 18 18 17 15 14 14 14 15 15 16 16 15 14 14 15 15 15 16 16 16 15 15 16 16 16 17 18 19 20 21 21 20 19 19 18 19 22 23 23 22 21 23 24 23
27 29 25 27 38 43 44 46 44 42 42 42 42 40 36 32 30 29 27 24 21 19 15 15 22 25 24 23 22 21 21 22 22 22 22 21 21 21 20 20 20 19 19 17 16 15 15 16 16 17 17 17 17 16 16 17 17 18 18 18 16 15 15 16 15 15 16 17 18 19 20 20 20 20 19 19 20 21 22 23 23 23 23 25 25
29 29 26 30 40 44 47 50 47 45 43 42 41 40 37 34 32 29 28 25 22 18 14 18 24 28 28 26 24 23 23 24 25 24 24 23 23 23 22 22 22 21 19 18 17 16 17 18 18 19 19 18 17 17 18 18 17 18 19 18 16 16 16 16 15 14 15 17 17 18 18 19 20 21 20 20 20 21 20 21 23 25 26 27 27
31 32 30 34 41 45 48 49 47 45 43 38 35 35 35 33 31 30 29 25 20 15 15 21 26 30 32 29 26 25 26 27 27 26 26 25 24 24 24 24 23 21 20 19 18 18 19 20 21 21 19 18 17 17 18 19 18 18 19 19 16 15 15 16 14 14 15 17 18 18 18 18 20 21 21 20 21 23 23 23 24 25 27 29 30
32 34 35 39 43 44 47 47 44 39 33 28 27 30 30 30 31 31 28 23 18 15 18 25 29 32 35 33 29 28 29 29 28 27 25 24 24 24 25 24 23 22 21 20 19 19 20 22 23 22 20 19 18 18 18 19 20 21 21 20 18 16 15 15 14 14 15 16 18 19 18 19 21 21 22 23 24 25 25 24 24 24 26 28 30
33 35 37 40 41 42 43 44 42 34 27 28 32 35 32 30 31 29 26 24 20 18 23 29 33 35 36 35 32 31 31 31 28 26 25 24 23 24 24 23 23 22 22 21 21 21 22 23 23 23 21 20 18 17 18 19 20 21 22 21 20 19 18 17 16 16 15 16 18 18 18 20 21 22 24 25 25 24 24 24 24 25 25 24 25
33 35 36 38 40 41 41 41 40 33 30 32 38 38 34 32 32 30 29 28 24 25 29 33 35 37 36 35 35 34 32 31 28 26 25 24 23 24 24 24 23 23 23 23 23 24 25 24 22 22 23 21 19 18 18 19 20 21 21 21 21 22 21 19 19 18 17 17 18 17 19 21 21 22 25 25 24 24 25 26 25 25 26 25 25
33 35 35 36 39 40 40 40 38 34 31 33 36 36 33 33 37 37 34 28 25 29 33 35 37 37 34 35 36 35 34 31 28 27 26 25 24 24 25 25 25 25 25 25 26 26 26 24 21 23 24 23 20 18 17 19 20 20 21 22 22 22 21 20 19 18 17 17 17 18 19 20 19 21 23 23 23 24 25 25 25 26 27 27 29
33 34 34 35 37 38 39 39 35 32 32 33 37 37 35 36 39 38 33 27 25 29 32 36 39 37 34 36 37 35 34 31 29 27 27 27 26 25 26 27 27 27 27 28 28 26 26 26 24 23 23 21 19 17 17 17 18 19 20 21 19 17 17 17 15 14 13 13 15 17 19 19 19 21 23 23 23 24 25 25 26 27 28 29 31
32 33 33 34 35 37 39 36 30 30 33 35 38 40 38 38 39 38 34 30 29 31 32 34 36 35 35 35 35 36 35 32 30 29 28 28 27 27 28 28 28 29 28 29 28 26 27 28 24 22 20 18 17 17 16 16 17 18 20 19 17 14 13 14 12 11 11 11 13 16 19 20 21 22 24 24 23 22 21 22 24 26 28 30 32
29 31 32 34 35 36 38 32 26 28 34 35 37 40 39 39 39 39 37 33 30 30 29 28 30 33 34 34 33 35 35 33 31 29 29 29 28 28 28 28 29 27 25 25 26 25 25 24 21 19 17 16 16 16 16 16 18 18 17 15 14 13 13 14 14 14 15 15 15 18 20 21 22 21 22 22 21 18 17 19 21 22 25 27 27
27 31 32 32 31 32 33 30 25 27 30 33 38 40 38 37 36 35 34 31 28 28 27 25 25 28 30 32 32 34 35 33 30 29 29 28 26 25 26 24 22 19 19 23 25 24 22 19 16 15 14 14 15 15 15 16 16 14 12 12 13 14 14 14 14 15 17 18 20 21 20 20 19 19 19 19 19 16 15 18 20 19 21 20 19
28 31 28 26 26 28 30 29 26 26 29 35 40 37 32 32 33 32 31 28 24 25 24 21 20 22 25 26 25 25 26 26 26 26 25 23 21 20 20 17 13 12 16 22 24 22 18 14 13 13 12 13 14 13 14 16 14 11 11 12 14 15 15 14 13 15 16 18 19 19 18 18 19 21 21 21 21 17 14 17 18 19 21 20 19
22 22 20 20 24 27 29 28 28 28 32 39 41 34 29 29 28 26 25 22 19 20 19 16 16 17 17 16 16 17 16 18 23 24 22 20 18 16 16 15 11 12 18 21 21 18 14 11 11 12 12 12 13 12 13 14 12 10 9 11 13 14 14 12 13 15 16 16 16 16 17 18 18 20 21 21 21 18 14 16 17 18 22 24 25
15 17 17 19 24 27 28 29 29 30 36 41 39 33 27 22 19 17 18 18 17 18 16 14 14 13 11 11 14 15 14 15 19 20 19 19 18 17 16 15 13 15 18 18 15 12 10 10 10 11 11 10 11 12 12 13 12 9 7 9 12 13 13 12 13 13 14 15 15 15 16 17 17 17 18 17 17 16 14 16 17 18 21 26 31
15 17 17 19 23 25 27 29 29 31 36 39 36 28 20 14 12 15 16 16 17 18 16 14 12 10 10 11 11 12 12 14 17 19 18 17 17 16 13 13 14 15 16 15 12 8 8 9 9 9 10 9 10 11 11 12 11 8 7 9 11 12 13 15 13 12 12 14 15 15 16 16 15 15 15 16 16 16 16 18 20 20 20 24 30
16 17 18 19 22 24 25 27 29 31 34 36 32 23 14 10 11 14 15 17 17 17 15 14 11 10 11 11 12 12 12 15 18 20 20 19 18 15 14 15 15 14 13 12 11 9 8 8 8 9 9 8 9 11 10 10 8 7 8 9 10 12 14 14 12 10 11 13 14 14 14 14 14 15 15 17 18 20 22 23 23 23 23 23 26
16 18 19 20 20 22 25 28 28 30 32 33 29 18 10 9 13 14 15 16 15 14 15 15 13 13 14 13 13 14 14 15 18 20 20 21 20 17 16 16 14 12 11 10 9 8 8 7 8 9 8 9 10 9 8 8 8 8 9 9 11 13 13 12 10 10 10 11 13 14 13 13 14 14 16 17 19 23 26 26 27 27 26 25 25
18 19 20 21 21 22 24 26 27 28 31 31 24 15 11 13 16 15 15 15 15 14 16 15 14 14 15 13 13 14 17 18 20 20 19 19 19 16 15 14 11 11 11 10 8 8 8 7 8 8 8 9 9 7 6 7 8 8 9 9 12 12 11 9 9 9 10 11 12 13 13 13 14 15 17 19 22 25 27 26 28 28 26 26 25
19 20 20 21 22 22 23 24 25 28 31 27 20 16 15 15 16 18 17 17 16 15 15 16 15 14 14 14 14 16 18 18 19 18 17 16 16 15 14 11 11 11 10 9 9 8 8 8 8 8 8 8 6 5 6 7 7 8 9 9 10 9 8 8 8 9 10 11 11 13 14 14 15 16 19 21 23 24 24 24 26 26 25 24 24
18 18 19 21 22 22 24 25 25 26 27 23 17 16 16 13 15 18 17 15 14 14 14 14 13 12 13 15 16 16 15 15 16 17 16 16 16 14 12 11 11 10 10 9 8 8 8 8 8 7 6 6 5 4 5 6 7 7 8 8 7 7 7 8 8 8 9 10 12 13 15 15 16 18 19 20 20 20 20 20 23 25 24 22 23
18 18 19 22 23 23 24 25 25 23 21 17 16 16 14 11 11 14 14 13 12 12 11 9 8 10 13 14 13 12 12 14 16 18 19 18 16 14 12 12 11 10 8 8 7 7 7 7 6 4 5 6 5 6 6 5 6 5 5 5 5 7 8 8 8 9 10 11 12 14 15 15 16 17 17 17 18 18 19 19 20 23 24 23 22
18 18 20 22 23 24 23 23 23 22 18 16 17 16 12 9 9 11 11 11 10 9 10 10 9 11 13 11 10 10 13 16 18 20 19 17 15 13 12 12 11 9 7 7 7 5 4 3 3 4 5 5 5 5 4 5 4 3 3 4 5 7 8 8 8 8 9 11 12 13 14 14 14 15 16 17 17 18 18 18 19 21 23 22 21
15 17 18 18 19 21 20 20 21 20 18 19 20 16 11 9 9 9 10 11 11 12 13 13 12 11 11 10 12 14 17 18 19 18 16 14 13 12 12 11 10 9 8 7 6 4 4 5 5 5 5 5 5 5 5 4 4 3 3 4 5 6 7 7 7 7 9 10 11 12 13 13 14 15 16 17 17 18 18 18 18 20 21 20 20
14 16 16 15 16 18 18 18 20 20 20 21 19 13 9 7 8 9 10 11 12 13 12 11 11 11 11 13 16 18 18 18 17 14 13 13 12 11 11 10 9 9 8 6 5 5 6 6 6 6 7 7 6 6 4 3 3 3 4 5 5 6 6 7 7 8 9 10 10 11 12 13 13 14 15 16 18 19 18 17 17 17 19 20 20
13 14 15 15 18 19 18 19 21 21 21 21 18 14 11 9 8 9 10 10 9 9 9 9 11 12 12 15 18 18 16 13 12 11 11 11 10 10 10 9 8 7 6 5 5 6 6 6 6 6 7 7 6 5 3 3 4 4 5 5 5 6 6 7 7 8 9 9 10 11 11 11 13 14 15 16 18 18 18 18 16 16 17 18 19
13 14 14 16 20 21 20 20 21 20 19 19 18 17 16 12 8 7 8 8 8 8 8 10 12 12 11 12 15 16 14 11 10 8 7 8 7 7 8 7 7 6 6 6 6 6 6 6 6 6 6 6 5 4 3 3 3 4 5 6 6 6 6 7 8 8 8 9 10 10 10 11 13 14 15 16 16 17 18 18 17 17 17 17 18
13 14 15 17 19 19 18 17 17 16 17 17 16 15 16 13 9 7 6 6 6 6 7 8 9 9 10 10 11 12 11 10 8 6 5 5 5 6 7 7 7 7 7 7 6 5 5 6 5 5 6 5 4 4 3 3 3 4 5 6 6 6 6 7 8 7 7 9 9 9 10 11 13 14 15 16 15 16 17 17 17 17 17 17 19
14 14 15 16 17 16 16 16 15 15 16 15 14 13 12 10 9 9 9 8 8 7 8 10 11 11 11 11 9 9 9 8 7 5 5 5 5 6 7 7 7 8 8 7 5 5 5 5 5 5 5 4 4 3 3 3 3 5 5 5 6 6 6 6 6 6 7 9 8 9 10 12 13 14 15 16 16 15 16 16 16 17 17 16 18
13 13 15 15 14 14 15 15 16 16 16 14 12 11 10 9 9 9 8 8 9 8 9 10 11 11 11 10 9 9 8 7 7 6 6 6 6 7 8 8 8 8 9 7 5 5 5 5 5 5 4 4 3 3 2 3 3 5 5 5 5 5 5 5 5 6 8 8 8 9 11 11 12 14 15 15 16 16 16 17 16 16 16 16 17
12 11 13 13 10 10 13 16 18 19 18 15 12 10 9 9 8 7 6 7 8 8 9 10 11 11 10 10 11 10 9 9 9 8 7 6 6 7 7 7 6 7 7 7 6 6 6 6 5 4 4 3 3 2 2 3 4 5 5 5 5 5 4 5 5 7 8 8 8 9 10 11 12 14 14 15 15 15 16 17 17 17 16 16 16
12 11 12 13 11 11 15 18 17 16 16 14 11 8 7 6 6 6 7 7 8 9 10 12 13 12 11 12 12 12 12 11 10 9 8 6 6 7 6 5 5 6 6 7 7 6 6 6 5 4 4 3 2 2 3 3 4 5 5 4 4 4 4 5 6 7 8 8 8 9 10 11 12 13 14 15 15 15 16 17 17 17 17 16 16
11 10 13 16 16 15 16 16 14 12 12 11 9 7 7 7 7 8 8 8 9 9 10 12 12 11 12 14 15 14 13 12 10 9 8 8 9 9 7 5 5 6 6 6 7 6 5 5 4 4 3 3 2 2 3 4 4 4 4 3 3 3 4 5 5 6 7 7 8 9 10 10 12 13 13 14 15 16 17 17 17 17 18 17 16
9 9 11 14 15 14 13 14 13 11 10 9 9 10 10 9 9 9 8 9 10 9 9 11 11 10 13 17 18 16 14 11 10 9 9 9 9 8 7 5 5 6 5 6 6 6 5 4 4 4 3 3 2 2 3 4 4 4 3 3 3 3 3 4 4 5 6 7 8 9 9 10 12 12 13 13 14 16 17 17 16 17 17 16 16
8 9 10 11 11 11 11 11 10 9 8 8 9 10 10 9 9 8 8 8 8 8 9 10 10 11 15 19 20 18 14 11 10 10 9 9 8 7 6 5 5 5 6 6 6 5 5 5 4 4 3 3 2 2 3 4 4 3 3 3 3 3 3 3 4 5 6 7 8 9 9 11 12 12 12 13 14 15 16 16 16 16 15 15 15
12 12 11 11 11 11 10 10 9 9 9 9 9 8 7 7 7 6 6 6 7 7 8 9 8 12 17 20 20 18 15 10 9 10 8 7 7 6 6 6 5 5 6 6 6 6 5 5 5 4 4 3 3 2 3 3 3 3 3 3 3 3 3 3 4 5 6 7 8 9 9 10 11 12 12 13 14 15 15 16 16 16 16 15 15
13 13 13 12 11 12 11 10 9 9 8 7 7 6 6 5 5 5 5 5 5 6 7 7 7 11 17 19 19 18 15 9 7 8 8 6 6 6 5 5 6 6 6 6 6 6 6 5 5 5 4 3 3 2 3 3 3 3 3 3 3 3 3 3 3 4 6 7 8 8 9 10 11 11 11 13 14 14 15 16 17 17 16 15 15
14 14 14 13 12 12 12 11 10 9 8 7 7 6 5 5 5 4 4 5 5 5 6 6 5 8 14 18 19 19 16 10 8 8 7 6 5 5 4 5 6 7 7 7 7 7 6 6 6 5 4 3 3 3 3 3 3 3 3 3 3 3 3 3 3 4 6 7 7 8 9 10 11 11 11 12 14 14 14 15 17 17 16 15 14
14 15 14 13 13 12 11 10 9 9 8 8 7 7 6 5 4 3 3 4 4 4 5 5 4 5 9 14 19 20 17 12 10 10 8 7 6 5 4 4 6 7 8 8 7 7 7 6 6 5 4 4 3 3 3 3 3 3 4 3 3 3 3 3 3 4 6 7 7 8 9 10 10 11 11 12 13 13 14 15 16 17 17 15 14
12 13 13 12 11 11 11 10 10 9 8 8 6 6 5 3 3 3 2 3 4 4 4 4 5 5 6 11 17 20 17 13 12 11 9 9 9 7 5 5 6 8 9 9 8 8 8 7 6 5 4 4 3 3 3 3 3 4 4 3 3 3 3 3 3 4 6 7 7 8 8 9 10 10 11 12 12 12 13 14 15 16 16 16 14
11 12 12 11 11 11 11 10 9 8 7 5 4 3 3 2 2 2 2 3 4 5 5 5 5 6 6 8 13 16 15 13 12 12 11 10 10 9 7 7 8 9 9 9 9 10 9 8 7 6 5 3 3 2 2 1 2 2 3 3 4 4 4 3 3 4 6 7 7 7 8 9 9 9 11 12 12 11 12 13 14 14 15 15 15
10 10 10 10 10 10 10 9 7 6 5 4 3 3 2 2 1 1 2 2 3 4 5 5 5 6 6 7 9 11 11 11 11 11 11 12 10 8 7 8 9 10 10 10 10 10 10 9 8 7 5 4 3 3 2 1 1 1 2 3 3 4 5 4 4 4 5 6 7 7 7 9 9 9 10 11 11 11 12 12 13 14 14 14 15
9 9 10 9 9 9 8 7 6 5 4 4 3 3 2 1 1 1 1 2 3 4 4 4 4 5 5 6 6 7 9 10 10 10 10 9 8 8 8 10 11 11 10 11 12 12 11 10 9 7 5 4 4 4 3 1 0 0 1 2 3 4 5 5 4 4 5 6 7 6 6 8 8 8 9 10 11 11 11 11 12 13 13 13 15
9 9 9 9 9 8 7 6 5 4 4 3 2 2 1 1 1 2 3 3 4 5 5 5 5 5 5 5 6 6 7 9 10 10 10 9 9 9 9 10 11 12 11 11 12 13 12 11 11 9 7 6 5 5 4 2 1 1 2 3 4 4 5 5 5 4 4 5 6 6 6 7 8 7 8 9 9 10 11 11 11 11 12 12 14
8 8 8 8 7 7 6 5 4 4 3 3 2 1 1 1 2 3 3 4 6 6 7 7 7 6 6 6 6 7 8 9 10 10 10 10 10 10 10 11 12 13 12 12 13 13 13 13 12 10 8 7 7 7 5 3 2 1 1 3 4 4 4 5 5 4 4 4 5 5 5 6 7 6 7 7 8 9 10 10 10 10 10 11 13
7 7 6 6 6 6 6 5 5 4 4 3 2 1 1 1 2 2 3 5 6 7 8 9 10 10 9 9 8 8 9 10 10 10 10 10 11 11 12 12 13 13 13 13 14 15 14 14 14 12 10 9 9 8 7 6 4 2 1 4 6 6 5 5 5 4 4 4 4 5 5 5 6 6 6 7 7 8 9 10 9 9 9 10 11
Wind_Direction
209 215 218 219 219 217 217 216 217 221 222 219 217 215 213 211 209 208 208 206 204 204 206 210 213 215 217 220 224 226 227 229 235 239 240 243 247 251 253 255 257 261 263 266 271 275 277 279 281 283 285 286 285 283 280 279 277 272 268 265 263 261 252 248 261 277 283 289 293 290 289 291 290 287 287 289 292 295 298 299 301 302 303 303 304
210 216 217 218 218 214 212 212 215 218 218 215 215 214 212 209 207 205 204 205 205 205 207 210 214 215 219 224 227 227 228 233 240 243 243 246 251 254 254 255 259 263 267 272 276 279 281 282 284 284 285 287 285 279 276 274 271 268 264 261 262 263 256 251 260 274 283 289 292 290 288 289 290 290 289 289 292 294 292 290 291 293 296 300 302
211 216 215 217 214 204 206 213 215 216 215 213 213 213 210 208 205 202 201 202 204 208 211 214 215 217 220 224 225 226 231 238 243 246 247 249 251 253 252 255 261 265 271 277 279 280 282 284 284 282 282 287 285 278 274 271 267 266 264 259 259 262 259 253 258 269 280 287 291 292 292 290 288 291 293 294 294 294 291 289 287 284 287 297 302
210 214 213 209 198 193 207 217 216 213 213 212 212 211 208 206 204 201 199 199 201 206 216 220 219 220 221 222 225 229 234 241 247 249 249 249 249 251 254 257 262 268 273 277 278 279 282 284 282 282 284 287 285 278 273 272 270 266 264 261 259 262 261 255 257 264 274 284 289 291 294 293 290 291 294 295 294 291 287 286 286 282 282 291 300
206 210 204 188 184 201 215 220 217 212 209 209 209 210 207 203 201 199 195 193 195 203 217 227 228 226 225 224 228 233 237 243 249 251 250 249 249 251 256 260 263 269 272 273 273 273 277 281 281 283 286 285 282 276 272 274 274 268 265 263 261 262 264 262 262 263 269 278 284 288 292 292 291 291 291 292 293 293 291 287 285 284 283 286 293
202 204 190 174 189 207 216 218 215 211 209 208 207 208 205 200 199 196 190 187 191 199 209 228 237 235 231 230 232 235 240 245 249 251 251 250 251 254 257 260 263 266 268 268 267 267 270 275 278 280 281 281 278 275 275 279 280 277 273 271 268 265 264 265 266 267 269 274 281 287 290 292 292 292 291 289 290 293 296 294 291 289 287 287 288
200 197 181 178 194 205 214 218 215 212 212 209 206 206 202 197 197 196 189 186 192 197 202 224 240 242 239 236 237 238 242 247 249 251 252 252 254 256 257 259 262 262 262 261 260 261 264 268 272 274 275 275 276 277 281 283 285 284 281 276 271 267 265 267 269 271 274 277 280 284 288 291 292 292 292 291 290 290 293 295 296 297 296 294 295
201 195 181 186 198 206 214 219 217 214 213 209 205 204 202 196 193 194 193 190 194 202 215 230 238 247 248 241 239 241 243 247 250 251 252 253 254 256 257 258 260 260 260 259 258 260 263 264 267 269 271 272 274 277 281 283 284 285 285 282 276 270 271 273 273 276 279 281 283 284 285 288 290 292 295 296 294 294 296 296 296 297 299 298 298
202 197 189 195 204 208 213 216 215 212 209 205 200 200 199 192 189 195 199 199 199 207 230 237 235 244 250 246 241 242 244 247 250 251 254 255 254 255 256 257 259 259 259 261 262 264 264 264 265 267 270 271 272 274 277 281 284 285 286 286 280 274 275 277 276 277 280 283 284 285 285 286 289 294 298 299 298 299 300 298 294 294 298 299 297
202 199 197 202 207 209 212 213 212 209 199 190 193 198 195 188 189 197 202 206 210 213 226 232 232 240 248 247 242 242 244 246 249 251 253 254 254 255 255 256 257 258 260 265 268 269 268 267 267 268 270 270 269 270 274 280 286 288 288 286 282 278 278 279 277 277 278 281 284 286 287 288 291 296 298 298 298 298 299 299 297 297 299 298 296
202 202 202 204 206 208 210 211 211 204 187 183 195 197 192 188 189 195 207 213 218 226 226 225 231 240 245 246 244 242 244 246 248 251 251 250 250 251 253 256 258 260 262 265 268 271 272 271 271 273 274 271 270 271 275 282 288 291 292 290 286 279 276 276 277 277 277 278 281 283 285 287 292 296 298 299 300 300 300 301 300 300 299 297 297
203 204 204 204 204 207 209 208 206 200 187 188 192 189 189 191 186 193 214 217 216 228 228 224 232 241 244 246 244 242 243 245 247 250 248 246 247 248 251 256 259 262 264 266 269 271 270 269 273 279 279 275 272 272 277 284 290 293 292 292 289 284 280 276 273 272 273 277 280 281 284 290 294 295 298 302 304 302 302 301 300 298 296 294 293
204 205 204 203 203 205 207 206 202 196 189 186 185 182 186 187 184 195 214 215 211 221 225 226 235 241 243 244 243 242 244 244 245 248 247 246 247 247 251 256 261 265 267 269 271 271 269 268 271 277 277 273 270 272 279 287 291 291 292 293 293 292 291 288 282 273 268 271 277 280 285 291 291 291 296 301 301 300 301 301 299 296 294 292 290
203 203 201 201 203 204 206 205 200 193 188 185 184 185 185 183 185 198 213 215 212 220 226 231 238 241 243 244 243 243 244 243 245 248 248 248 248 249 252 257 261 266 269 271 272 275 278 277 274 272 270 267 267 273 282 286 287 289 292 294 294 294 295 297 294 284 273 270 274 280 287 290 288 289 295 297 297 298 300 299 296 293 291 289 288
200 201 199 200 202 204 205 203 195 189 190 188 187 190 189 185 188 200 212 218 220 224 230 236 239 240 242 244 244 245 245 244 246 249 251 252 252 251 253 257 262 266 268 271 274 276 277 276 273 268 263 261 268 276 281 282 284 288 291 291 290 291 291 289 285 281 280 281 281 284 289 290 288 288 291 293 294 294 294 291 291 291 290 289 290
197 198 199 200 201 203 202 197 187 187 191 190 191 195 194 193 196 204 213 220 224 226 231 237 239 240 242 243 244 246 247 247 248 252 256 256 254 253 256 261 265 268 273 278 280 277 272 269 266 262 258 260 271 278 279 281 285 288 288 288 288 289 288 284 284 287 291 296 298 296 294 292 291 291 294 297 295 293 293 292 291 291 292 293 294
197 200 201 200 198 197 196 190 182 184 188 190 196 200 197 197 202 207 211 216 220 224 229 234 236 239 242 242 244 247 250 252 254 256 258 258 257 259 264 266 269 279 292 293 287 278 272 267 259 253 254 263 272 278 280 282 285 284 282 284 286 287 288 290 296 300 301 306 311 309 303 302 305 307 309 310 307 301 295 291 292 296 296 295 294
200 202 199 194 190 191 191 187 181 181 186 194 200 201 196 197 203 208 210 213 218 222 227 231 235 240 242 242 244 247 252 259 261 260 260 261 262 265 265 262 266 282 289 285 280 274 267 261 253 250 256 265 272 279 281 281 281 277 276 281 283 286 293 300 304 306 306 309 313 312 308 309 315 317 317 318 318 312 292 283 290 296 295 292 292
198 196 190 185 187 190 188 185 182 183 191 199 202 199 197 201 207 210 213 217 224 226 226 228 233 239 240 240 246 252 258 265 266 265 265 263 261 257 248 242 253 271 270 267 268 266 260 255 255 256 261 268 274 279 280 278 275 269 269 276 280 286 298 306 307 308 308 308 309 308 304 304 309 313 313 314 317 313 291 278 283 288 290 291 291
186 187 183 183 187 189 187 186 185 186 194 200 200 199 201 204 207 214 221 226 230 229 225 224 229 234 232 237 252 258 259 267 274 278 273 261 252 241 231 237 258 266 260 256 254 251 249 252 258 261 265 271 275 276 276 273 269 261 260 271 279 287 299 304 305 308 308 306 306 305 301 301 304 306 305 305 307 305 291 283 284 282 286 289 289
182 185 183 184 186 187 187 187 186 189 195 198 199 201 203 204 208 217 224 226 226 225 224 222 221 221 225 235 245 250 257 269 275 274 267 254 245 240 240 254 261 250 241 243 242 235 240 247 255 264 270 273 273 272 272 268 262 253 255 267 277 288 300 304 306 308 306 305 306 303 299 300 302 303 303 304 305 305 302 300 296 287 283 285 287
186 185 182 182 182 182 185 187 187 190 194 196 199 202 201 203 213 217 219 221 220 219 223 224 216 208 214 226 232 234 247 261 258 249 242 236 238 250 260 259 249 235 232 240 239 238 246 252 261 272 276 276 274 271 267 261 254 255 266 274 283 293 302 304 303 303 304 303 301 297 295 298 300 303 307 308 309 310 310 308 304 297 290 284 283
184 182 179 180 179 180 184 187 187 190 192 196 201 204 199 209 219 218 217 220 220 221 226 225 212 197 200 218 232 229 229 241 240 230 224 228 241 254 250 237 231 230 233 235 236 245 257 262 267 275 279 277 273 267 258 252 256 271 279 282 291 300 304 302 297 296 297 295 292 290 292 298 302 305 308 308 310 313 313 312 309 304 297 291 288
178 176 176 179 180 182 184 185 185 188 191 194 198 200 201 212 220 221 223 223 222 221 222 216 199 186 193 213 230 223 217 226 233 229 227 235 243 243 231 224 229 235 236 239 244 252 260 263 269 278 278 270 263 256 253 256 264 275 283 291 300 305 303 297 294 294 292 289 288 289 293 300 304 305 307 308 311 314 314 314 312 306 299 296 294
173 174 174 177 181 182 183 184 184 187 190 192 192 195 201 208 217 223 225 222 219 214 210 206 197 190 195 205 207 204 205 213 224 231 236 235 229 223 222 229 238 240 240 247 252 254 260 265 272 278 267 253 247 246 251 256 262 274 289 299 302 303 299 295 294 292 290 289 291 294 297 301 304 305 308 311 313 314 313 312 312 309 305 302 299
170 172 172 175 179 180 181 185 187 187 188 189 186 190 197 202 212 220 218 212 211 207 202 202 202 198 200 198 191 191 198 209 220 227 226 219 214 216 224 232 238 242 246 249 251 257 265 270 276 273 247 226 223 225 232 249 268 285 296 299 297 296 296 294 290 288 289 292 294 295 298 302 306 308 311 312 310 310 310 310 311 312 313 312 308
168 169 172 176 178 178 181 184 185 185 187 186 184 189 195 198 207 214 208 199 199 196 191 194 201 203 202 195 186 189 203 215 220 217 211 209 212 219 224 229 236 239 240 242 247 256 265 271 272 253 216 205 214 221 229 251 274 285 287 289 295 296 294 292 288 286 288 291 294 295 298 303 308 311 314 312 309 310 313 312 312 314 316 316 311
167 166 168 171 174 179 183 183 182 183 185 186 188 189 188 187 195 203 201 193 185 184 189 193 195 201 203 195 183 192 208 213 210 205 205 210 215 220 223 229 233 228 223 231 241 243 244 238 219 201 195 200 212 221 231 246 255 260 268 283 294 295 296 299 294 287 286 291 294 297 301 307 312 314 316 315 313 316 319 316 314 316 317 316 311
161 160 161 164 170 177 182 183 183 182 182 185 188 184 175 177 188 193 191 186 180 182 189 191 190 200 212 211 200 201 208 208 203 201 208 215 219 222 223 224 226 222 223 234 233 207 193 204 209 213 219 226 232 232 230 234 237 245 265 284 292 293 295 297 293 289 294 296 297 301 307 314 317 318 319 319 318 320 321 317 317 319 319 315 309
154 156 159 164 169 173 177 182 183 182 183 183 178 166 160 177 186 180 181 188 192 195 196 197 197 200 211 220 218 212 210 207 201 203 214 219 221 225 226 227 228 228 232 240 225 197 200 215 225 231 236 245 251 244 238 245 254 263 276 283 289 294 296 295 295 299 302 301 301 306 312 317 319 321 323 323 322 323 323 318 314 315 318 318 312
151 155 159 164 170 172 174 180 183 183 184 179 168 156 160 176 183 186 194 204 214 217 218 219 216 210 211 220 220 211 203 201 200 203 212 217 219 225 227 230 233 234 235 231 212 204 208 215 221 229 235 242 243 238 242 258 265 282 294 290 289 295 298 300 303 306 306 304 305 310 316 320 321 322 324 324 322 323 324 322 319 317 319 321 317
156 157 158 162 169 173 175 179 181 181 178 175 170 165 165 164 161 175 197 212 225 237 240 231 221 212 207 213 212 201 192 192 196 197 202 206 210 218 224 227 231 233 227 213 202 204 210 213 218 222 223 226 225 225 242 260 269 287 298 300 303 302 301 305 311 312 310 307 308 315 320 324 324 322 322 323 322 322 323 324 324 323 322 322 322
158 156 158 162 166 171 172 173 174 172 170 171 171 168 166 162 152 146 155 174 196 213 213 198 186 175 170 178 191 193 191 190 190 188 189 192 199 214 223 224 224 219 208 202 204 207 207 210 214 211 211 219 222 218 231 259 282 293 296 302 306 305 303 310 314 313 309 305 309 319 325 327 327 324 323 325 325 324 325 325 324 324 324 324 326
161 161 164 164 163 167 171 171 170 170 170 171 171 168 165 163 158 152 150 149 150 152 154 154 153 153 158 165 173 180 182 180 177 175 176 182 197 212 213 209 206 201 197 200 211 211 203 207 212 207 210 222 220 216 236 267 286 300 304 302 303 302 303 309 314 314 312 311 315 327 332 331 330 327 325 327 328 327 329 329 328 327 326 325 327
160 164 170 170 166 169 174 173 172 172 171 169 167 165 166 169 173 173 168 159 151 142 141 147 154 159 162 163 164 166 167 164 161 160 161 169 182 191 192 192 195 197 198 204 212 210 209 215 217 211 212 217 215 225 260 281 293 309 311 304 305 306 305 311 318 318 318 320 324 333 335 331 330 329 326 326 328 330 332 333 331 327 324 324 325
153 157 168 171 168 168 172 172 173 175 177 176 171 166 168 176 184 184 174 165 157 148 147 154 160 162 165 165 163 160 157 156 155 153 152 160 173 179 184 194 200 199 199 203 204 206 213 218 217 212 211 211 214 236 274 298 307 313 310 306 308 308 307 318 325 321 320 323 328 335 337 333 331 332 329 326 329 332 333 334 331 326 325 325 322
153 152 164 170 168 165 170 174 176 179 182 182 178 173 173 178 182 178 172 170 165 157 160 167 166 163 166 168 166 163 162 161 158 154 153 163 177 187 200 214 213 207 208 206 204 207 214 215 209 206 205 208 219 253 288 307 310 309 308 304 301 303 307 319 327 326 324 326 332 337 337 334 333 333 329 327 331 333 334 336 333 328 328 330 325
174 178 182 180 174 169 171 177 182 184 186 186 184 178 171 168 171 172 170 172 173 170 170 173 172 171 172 173 172 171 169 165 162 164 171 179 184 194 209 218 210 209 213 207 203 207 212 209 203 198 202 210 228 269 298 311 311 307 304 291 281 295 309 316 323 325 323 327 336 339 336 334 335 334 330 329 332 334 335 337 336 332 331 334 335
188 194 192 184 177 174 177 183 187 188 187 187 184 177 169 165 171 174 173 176 180 180 179 181 184 183 179 175 174 174 173 172 174 178 184 188 190 196 208 210 203 204 204 197 197 202 202 196 193 192 197 212 237 275 300 312 308 298 292 280 272 289 305 310 316 321 325 335 341 339 337 336 333 332 332 332 333 335 335 334 336 334 330 331 335
147 159 170 171 168 169 175 180 181 179 176 172 169 167 166 165 168 170 172 177 182 185 190 192 192 189 186 184 183 180 177 182 189 189 187 189 192 195 203 208 205 202 199 195 196 198 198 194 191 192 199 213 236 270 300 309 300 284 277 273 267 279 298 307 315 324 333 341 342 337 336 336 332 331 335 336 334 334 334 334 336 334 329 328 331
124 133 144 148 148 149 153 159 164 166 166 163 158 157 158 159 161 165 176 190 194 196 200 203 200 196 197 198 195 189 185 188 194 193 190 192 196 200 206 212 211 207 204 201 197 196 197 195 191 194 204 215 230 267 296 299 287 270 260 260 263 277 294 302 314 330 337 341 342 340 337 335 333 333 334 335 335 335 336 338 340 337 333 332 334
125 130 134 136 138 139 139 142 148 151 150 145 141 139 139 148 163 176 190 199 204 204 204 201 196 199 205 207 203 197 195 194 195 196 198 201 203 205 209 213 212 209 208 206 198 195 196 192 190 195 203 211 232 275 295 289 277 259 250 255 261 275 293 301 315 333 341 342 341 339 336 334 335 334 332 335 338 339 339 341 342 341 339 339 338
135 135 135 135 133 129 128 130 132 132 129 124 125 131 138 147 162 176 193 204 206 209 210 203 193 199 208 210 207 204 205 207 207 204 205 207 207 208 213 217 213 207 204 203 198 195 192 186 186 191 200 212 238 281 292 275 262 249 243 249 255 264 288 308 318 333 344 343 338 336 337 336 336 336 337 339 342 341 341 343 344 343 344 342 342
131 127 126 124 119 115 116 119 118 116 115 113 115 125 134 138 149 167 194 210 209 212 218 217 209 204 206 207 208 208 210 215 215 208 206 210 213 212 215 216 208 200 198 198 197 194 187 181 182 195 211 230 259 290 293 273 254 238 233 243 253 261 282 307 321 336 347 345 336 335 337 338 338 340 340 341 342 342 343 345 346 345 344 344 347
126 121 117 115 113 111 111 110 107 105 105 105 107 115 120 122 139 163 191 215 219 218 218 215 214 210 205 205 208 210 212 215 214 209 209 217 221 224 232 231 214 201 197 198 198 193 186 182 188 200 214 236 263 285 291 277 252 231 226 234 243 253 273 295 315 336 350 349 339 334 337 339 341 343 342 342 343 345 345 346 347 347 347 347 349
125 120 117 116 117 116 113 109 103 99 98 102 106 109 109 113 134 160 185 210 226 231 227 217 213 211 204 201 205 209 213 214 213 211 215 222 226 231 238 232 213 200 197 200 199 197 194 192 193 196 203 220 239 244 259 285 271 244 241 244 245 249 263 284 309 333 348 349 342 337 337 340 341 341 341 341 342 344 347 347 348 349 350 350 350
127 122 122 122 121 120 117 113 110 104 99 100 100 95 96 106 119 167 202 212 224 233 230 223 218 217 214 210 209 211 213 214 211 211 216 223 226 226 223 214 204 199 200 202 201 202 204 202 198 195 200 211 216 212 213 247 287 275 278 279 267 258 260 271 295 321 337 344 344 340 337 339 339 339 341 342 343 345 348 349 351 351 351 352 353
130 126 127 126 125 126 126 125 125 122 116 112 108 103 104 115 138 207 224 226 231 233 233 234 232 230 229 227 222 217 216 216 213 209 210 214 214 210 205 204 202 201 202 205 207 209 208 204 201 202 206 209 204 198 196 200 104 35 331 309 292 275 264 263 275 300 322 337 342 336 331 336 339 340 341 342 343 346 348 350 353 353 352 353 355
132 131 132 132 132 134 137 139 142 144 145 146 150 152 150 180 253 258 258 260 258 254 253 251 246 243 242 238 230 223 220 219 216 212 207 204 204 202 201 203 204 204 205 208 214 217 214 209 208 208 207 202 198 193 190 184 131 73 21 336 315 299 282 267 264 279 307 329 333 327 327 335 337 337 341 343 344 347 352 353 354 355 355 356 357
136 137 139 140 141 145 149 155 161 166 173 183 193 200 216 256 278 282 286 288 283 276 271 265 257 250 246 239 231 227 225 222 218 213 207 203 203 204 203 203 206 208 207 210 217 221 219 215 213 212 209 204 201 197 196 200 200 170 16 357 347 331 300 271 260 266 289 315 323 320 325 338 341 340 344 347 346 351 356 356 356 358 1 1 360
143 145 146 149 153 158 163 167 170 170 170 172 174 177 203 260 297 314 320 317 308 298 290 282 272 262 253 246 239 234 230 225 219 214 209 206 208 212 210 207 207 208 208 212 221 225 223 217 214 213 211 208 205 201 202 211 218 222 326 2 4 354 322 275 253 256 273 300 319 317 317 332 345 348 351 351 350 352 355 356 357 2 7 7 6
Height
772 774 775 777 779 782 785 788 790 792 795 798 801 802 803 804 806 809 811 814 815 816 819 821 823 825 827 828 829 830 831 832 833 833 833 834 834 835 835 835 835 835 835 834 834 833 833 832 833 833 833 833 834 834 833 833 833 832 832 832 832 832 833 832 831 827 824 823 823 822 821 820 817 815 814 812 811 810 808 807 805 804 802 801 799
768 768 770 773 776 779 784 787 788 790 793 795 797 798 800 802 805 807 809 812 814 815 817 818 820 822 824 825 827 827 828 829 830 830 831 831 832 833 833 833 834 833 833 832 832 831 831 830 830 830 831 831 831 831 831 831 831 830 830 830 829 829 830 829 828 826 822 820 820 819 819 818 815 813 812 810 809 808 806 804 803 801 800 798 796
762 764 767 771 775 780 784 786 787 788 790 793 795 797 799 802 804 806 808 810 813 814 816 817 818 819 821 823 824 825 826 826 827 828 829 829 830 831 831 832 832 831 831 830 830 829 829 828 828 828 828 829 829 829 829 829 829 828 827 827 827 826 827 826 825 823 821 818 817 816 815 815 813 812 810 808 807 805 803 801 800 799 797 795 793
758 760 764 771 777 783 785 783 782 784 786 790 794 796 798 800 802 804 806 808 811 813 815 816 817 818 819 820 821 822 823 824 825 826 827 827 828 829 829 829 829 829 829 828 828 827 827 826 826 827 827 827 827 827 827 827 826 826 825 825 825 824 823 823 822 821 819 817 815 814 813 812 811 810 808 806 804 803 801 799 797 795 793 791 789
754 756 763 771 776 780 779 776 776 779 783 787 790 792 794 796 799 801 803 806 809 811 814 816 818 818 818 818 819 819 820 821 823 823 824 825 826 826 827 827 827 827 826 826 825 825 825 824 825 825 825 825 825 825 825 825 824 823 823 823 822 821 820 819 819 818 817 815 813 812 811 809 808 807 806 804 802 800 798 796 794 792 790 788 786
750 755 762 767 768 769 768 768 771 776 778 780 784 786 789 793 796 799 800 802 805 808 811 815 817 817 816 816 817 817 818 819 820 821 822 822 823 824 824 824 824 824 824 823 823 823 823 823 823 823 823 823 823 823 823 822 822 821 821 820 819 818 817 816 815 815 814 813 811 810 808 807 805 804 803 802 799 797 795 793 791 790 788 785 783
747 753 759 760 760 761 761 763 767 770 771 775 779 782 785 790 794 797 797 797 800 804 807 811 815 815 815 815 815 815 816 817 818 819 819 820 821 821 822 822 822 821 821 821 821 820 820 820 820 820 821 821 821 821 821 820 820 819 818 817 816 815 814 813 812 811 811 810 809 807 805 804 803 801 800 799 797 795 793 790 787 786 785 783 780
745 750 754 755 755 755 756 758 761 764 768 772 776 780 783 787 791 796 796 794 796 800 803 807 812 814 814 814 814 814 814 815 815 816 817 818 818 819 819 819 819 818 818 818 818 818 818 818 818 818 818 818 818 818 818 818 818 817 816 815 814 813 811 810 809 809 808 807 806 804 803 801 799 797 796 795 793 791 790 788 785 783 782 780 778
742 746 749 750 749 750 752 754 758 761 765 770 777 781 784 787 790 794 795 793 794 796 800 806 810 811 812 812 811 812 811 811 812 813 814 815 815 816 816 816 816 816 816 815 815 815 815 815 815 815 815 815 815 815 815 816 815 815 814 813 812 811 809 808 808 807 806 805 803 801 800 798 796 794 793 792 790 787 786 785 782 780 778 776 774
738 742 744 744 745 747 750 753 757 761 766 773 780 784 785 787 788 791 793 793 793 794 798 803 806 806 807 808 808 808 807 808 809 810 811 812 812 813 813 813 814 814 813 812 812 812 812 812 812 812 812 812 812 812 813 813 813 812 811 810 809 809 807 807 806 805 804 802 800 799 797 794 792 791 790 788 787 785 783 782 779 777 774 771 768
735 738 739 741 743 745 748 751 756 761 766 771 776 777 780 783 785 788 792 792 792 793 796 799 801 802 803 804 804 804 803 804 805 807 808 809 809 810 810 811 811 811 810 809 809 809 809 809 809 809 810 809 809 809 810 810 810 809 808 807 807 806 805 805 804 803 802 800 797 796 794 791 790 789 787 785 784 782 780 779 776 774 772 767 763
733 735 736 739 741 743 746 749 754 759 762 765 768 771 775 779 783 788 790 788 788 791 793 796 798 798 799 800 800 800 800 801 802 804 804 805 807 807 808 808 808 807 807 806 806 806 805 806 807 807 807 807 807 807 807 807 807 806 805 805 804 803 803 802 801 801 799 797 795 793 791 789 788 786 785 783 781 780 778 776 774 772 769 766 761
729 731 734 737 739 741 744 747 751 757 760 762 766 768 771 776 779 782 785 785 785 787 789 792 793 794 795 795 796 796 796 797 799 800 801 802 804 805 805 805 805 804 804 803 803 803 803 803 805 805 804 804 804 804 804 804 804 803 803 802 801 800 799 799 798 797 797 795 793 790 789 788 786 784 783 782 780 778 775 773 772 769 766 763 759
726 729 731 734 736 739 742 745 749 754 758 760 763 765 768 771 773 776 780 782 782 783 786 788 788 789 790 791 792 792 793 794 796 797 799 800 801 802 802 802 802 801 801 801 801 801 802 802 802 802 802 802 802 802 802 802 801 801 800 799 798 797 797 796 795 795 794 792 790 788 787 786 785 782 781 780 778 776 774 771 769 767 763 760 756
723 726 728 731 733 736 739 742 747 752 755 758 760 762 764 766 767 771 775 777 777 779 783 785 784 785 787 788 789 789 789 791 793 795 796 798 799 799 799 799 799 799 799 798 798 799 799 799 799 799 799 799 800 800 800 799 799 799 798 797 796 796 795 794 794 793 791 790 788 786 785 784 782 780 778 777 775 774 772 770 767 764 760 756 752
721 723 725 727 730 732 736 741 746 749 752 756 757 758 760 761 763 766 770 772 774 777 780 781 782 782 784 785 786 787 787 788 791 792 794 796 797 797 797 797 797 797 797 797 796 796 796 796 796 796 797 797 797 797 797 797 797 796 796 795 794 794 793 792 791 790 789 787 785 784 782 780 779 777 775 773 772 771 769 767 764 761 757 752 748
719 720 722 725 727 731 734 739 743 747 750 753 753 754 756 759 762 765 767 769 771 774 776 777 779 780 781 783 784 784 785 787 789 791 793 794 795 795 795 796 796 797 798 797 795 795 794 793 793 794 795 795 795 795 795 795 795 795 794 793 793 792 791 790 788 787 785 783 782 780 778 776 775 773 771 770 768 768 767 764 760 758 754 750 745
715 717 720 724 727 730 733 737 741 745 747 748 749 751 754 758 760 762 764 766 769 771 773 774 776 778 779 781 782 783 785 787 788 790 791 792 793 793 793 794 793 795 796 795 793 793 792 791 792 792 792 792 792 793 793 793 793 793 792 792 791 790 789 788 786 785 783 781 779 777 775 773 771 769 768 767 765 765 764 760 758 755 752 748 743
714 717 720 723 726 729 732 735 739 741 743 744 745 749 753 755 757 760 763 765 767 769 770 771 773 775 777 779 781 783 786 787 788 789 789 790 790 790 790 789 789 790 791 791 791 791 790 790 790 790 790 790 790 790 790 790 790 790 790 789 789 788 786 785 784 782 781 779 777 776 774 771 769 767 765 764 762 761 760 757 755 753 749 745 741
715 717 720 722 725 727 730 733 736 738 739 741 744 748 751 753 756 759 762 764 766 767 768 768 770 773 775 777 779 781 784 786 787 788 788 788 788 787 787 787 786 787 788 788 789 789 789 788 787 787 787 788 788 788 788 788 788 787 787 787 787 785 784 782 781 779 778 777 775 774 772 769 767 765 763 761 760 758 756 754 752 749 746 742 738
714 716 719 721 723 726 728 731 734 736 737 740 744 747 749 752 755 758 760 762 763 764 764 765 768 770 772 774 776 778 780 782 783 785 786 787 787 786 786 786 786 786 786 786 787 787 787 786 785 785 785 786 786 786 786 786 785 785 785 785 784 783 781 780 778 777 776 775 773 772 770 767 765 763 761 759 757 755 753 750 748 745 742 739 735
713 715 718 720 722 724 727 730 732 735 737 740 743 746 748 751 754 756 758 760 760 761 761 762 765 767 769 771 772 773 775 776 778 780 781 782 784 785 786 785 785 784 783 784 785 785 784 784 783 783 784 784 784 784 784 784 783 783 784 783 782 781 779 778 776 775 774 773 772 770 767 765 763 760 758 756 754 751 748 746 743 740 738 735 732
712 714 716 718 721 723 726 728 731 734 737 740 743 745 748 752 754 755 756 757 757 758 758 760 762 764 766 767 768 769 770 772 774 777 778 779 780 782 784 783 782 782 782 782 783 782 782 782 781 782 782 782 782 782 782 782 782 782 782 781 780 779 777 776 775 773 772 771 770 767 765 763 761 758 756 753 751 747 744 741 738 735 732 729 727
710 712 714 716 719 722 725 727 730 733 736 739 742 744 748 751 753 753 753 753 754 754 756 758 760 762 764 765 766 768 770 771 773 775 776 777 778 780 781 781 780 780 780 781 781 780 780 780 780 780 780 780 780 780 780 780 780 780 780 779 778 777 776 775 774 772 771 769 767 765 763 761 758 756 754 751 748 744 741 737 734 731 728 724 721
708 710 711 714 717 721 724 727 729 732 735 739 741 743 746 749 750 750 750 750 751 752 754 756 758 760 761 763 765 767 768 770 772 773 775 776 777 778 779 778 778 778 778 779 779 778 778 779 779 778 778 778 778 779 779 779 778 778 778 777 776 775 775 774 773 771 769 768 766 764 761 758 756 754 751 748 745 741 738 734 730 727 724 720 716
706 709 711 713 716 719 722 725 728 731 735 737 739 742 745 746 746 747 748 749 750 751 753 754 756 757 760 762 764 764 766 768 771 772 773 774 775 775 775 775 776 776 777 777 777 777 777 777 777 777 776 777 777 778 778 777 777 776 776 775 775 774 774 773 772 770 768 766 764 762 759 756 753 751 748 745 742 739 736 732 728 724 721 718 712
704 707 710 713 715 718 721 724 727 730 734 736 738 741 743 744 744 745 746 747 748 749 750 752 755 758 759 760 761 762 765 768 769 770 771 771 772 772 773 773 774 775 775 776 776 775 775 775 775 775 775 776 776 777 777 776 776 775 775 774 774 773 772 771 770 768 766 765 763 760 757 754 751 748 746 743 740 738 734 731 727 723 719 716 712
704 707 710 712 715 717 720 723 726 729 732 734 737 739 741 742 743 744 745 746 747 747 749 751 753 755 756 756 758 762 765 766 766 767 768 768 769 770 771 772 772 773 774 774 774 774 774 774 775 775 775 775 776 776 776 775 774 774 773 773 773 772 771 770 768 766 765 763 761 758 755 752 750 747 745 742 739 736 733 730 727 723 719 715 711
706 708 709 712 715 717 720 723 725 728 730 732 734 737 739 741 742 743 744 746 746 747 748 749 750 751 753 756 759 762 763 763 763 764 766 767 768 769 770 770 771 772 773 772 773 773 773 774 774 775 775 775 775 775 775 774 773 773 772 772 772 771 770 768 766 765 763 761 760 757 754 751 748 746 743 740 737 734 732 729 726 722 718 715 711
707 708 709 712 714 717 719 722 724 726 727 729 733 736 738 740 741 742 743 744 745 746 747 747 748 749 752 756 758 760 760 760 761 763 765 766 767 767 768 769 770 771 771 771 771 772 772 772 772 772 773 774 773 773 773 772 772 772 771 771 770 769 768 767 765 763 762 760 758 756 753 750 747 745 742 739 736 733 730 727 724 721 718 715 710
706 707 709 711 713 716 718 720 721 723 726 728 732 735 737 738 738 740 742 743 744 745 746 747 748 749 750 753 755 757 758 759 760 762 763 764 765 766 767 768 769 769 770 770 770 770 770 770 771 771 772 772 772 772 771 771 771 771 770 769 769 768 766 765 764 762 760 759 757 755 752 749 747 744 742 739 735 732 729 726 723 720 717 714 710
706 707 709 711 713 715 717 718 721 723 726 729 731 733 735 737 739 740 742 743 744 745 746 747 748 748 749 751 753 754 756 757 759 760 762 763 764 765 766 767 768 768 769 769 769 769 769 769 770 770 771 771 770 770 770 770 770 770 769 768 767 766 765 764 762 760 759 758 756 753 751 748 746 743 741 738 735 732 728 725 722 719 716 712 709
706 707 709 711 713 716 718 719 722 724 726 728 731 732 734 737 739 740 742 743 744 745 746 746 746 747 748 750 752 754 755 757 758 759 760 761 763 764 765 766 767 767 768 768 768 768 768 768 769 769 770 770 770 770 769 769 769 768 768 767 766 765 764 762 760 759 758 757 755 752 750 748 746 743 740 738 735 732 728 725 722 718 715 712 708
707 708 710 711 714 716 718 720 722 724 726 728 730 731 733 735 737 739 741 742 743 745 745 745 746 747 748 751 752 754 755 756 758 759 760 761 762 763 764 765 766 767 767 767 767 767 767 768 768 769 769 769 769 769 769 768 768 767 766 765 764 763 762 761 760 759 758 756 754 751 749 747 745 743 740 737 734 731 728 725 722 719 715 713 708
708 710 711 713 714 716 718 719 721 723 726 727 729 731 732 734 736 738 739 740 742 743 745 745 746 747 749 751 752 754 755 757 758 759 759 760 761 762 764 765 765 766 766 766 766 767 767 768 768 768 768 768 768 768 768 767 767 766 765 764 763 762 761 760 759 758 757 755 753 751 749 747 745 743 740 737 734 731 728 725 722 719 716 713 709
709 711 712 714 716 717 718 719 721 723 725 726 728 731 732 734 736 737 737 739 740 742 744 745 746 748 749 751 752 754 755 756 757 758 759 760 761 762 763 764 764 764 764 765 766 766 766 767 767 767 767 767 767 767 767 766 766 765 764 763 762 762 761 760 759 758 756 754 752 750 748 747 745 743 740 737 734 731 728 725 722 719 716 713 710
709 711 712 714 715 716 718 720 722 723 725 727 728 730 731 733 734 735 736 738 740 741 743 744 746 748 750 751 752 753 754 756 756 757 758 759 760 761 762 762 762 763 763 764 765 765 766 766 766 766 766 766 766 766 766 765 764 764 763 762 761 761 760 759 758 757 756 754 752 750 748 747 745 743 740 737 734 731 729 726 723 719 716 713 710
709 710 711 713 714 716 719 721 723 724 726 727 728 729 730 731 733 734 736 737 739 740 742 743 745 747 749 750 751 753 753 754 755 756 757 758 759 760 761 761 761 762 762 763 764 764 764 764 765 765 765 765 765 765 765 764 764 763 762 761 761 760 759 758 758 757 755 753 751 749 748 746 745 743 740 738 735 732 729 726 723 719 716 713 710
710 711 712 713 715 717 719 721 723 725 726 726 727 728 729 730 732 733 735 736 738 739 741 742 744 746 747 748 750 751 752 753 754 755 757 757 758 759 760 760 760 761 761 762 762 763 763 763 763 764 764 764 764 764 764 763 763 762 761 761 760 760 759 758 757 756 755 753 751 749 748 746 745 743 740 738 735 732 729 726 724 721 717 714 711
710 712 714 715 717 718 720 721 723 724 725 727 727 728 729 730 731 732 734 735 737 739 740 741 743 744 745 746 747 749 750 752 753 754 755 756 757 758 758 759 759 760 760 761 761 761 762 762 762 763 763 763 763 763 763 762 762 761 761 760 760 759 759 758 757 756 754 753 751 749 748 746 744 742 740 738 735 733 730 727 724 721 718 715 712
711 713 715 717 718 719 720 722 724 725 726 727 728 728 729 730 731 732 734 736 737 738 739 740 742 742 743 745 746 747 749 750 751 752 753 754 755 756 757 758 758 758 759 759 760 760 761 761 761 762 762 762 762 762 761 761 761 760 760 760 759 759 758 757 757 756 754 752 751 749 748 746 745 742 740 738 736 733 730 727 724 722 719 716 713
713 714 716 718 719 720 721 723 724 725 726 727 727 728 730 730 732 733 735 736 737 737 738 739 740 741 742 744 745 747 748 749 750 751 752 753 754 754 755 756 756 757 758 758 758 759 759 760 760 761 761 761 761 761 761 760 760 760 760 759 759 758 758 757 756 755 754 752 751 749 748 746 744 742 741 738 736 733 730 728 725 722 719 717 714
714 715 716 718 719 720 721 722 724 725 726 727 728 729 730 732 733 734 735 736 736 737 738 739 740 741 741 743 744 746 747 748 749 750 751 751 752 753 754 754 755 755 756 757 757 758 758 759 759 760 760 760 760 760 760 759 759 759 759 759 758 758 757 756 756 755 753 752 751 749 748 746 744 742 741 739 736 734 731 728 726 723 720 717 715
714 715 717 718 719 721 722 723 724 725 726 727 729 730 731 732 733 734 734 735 736 736 737 738 739 740 741 742 743 745 746 747 748 748 749 750 751 751 752 753 753 754 755 755 756 757 757 758 758 759 759 759 759 759 758 758 758 758 758 758 757 757 757 756 755 754 753 752 751 749 748 746 745 743 741 739 737 734 732 729 727 724 721 718 716
716 716 717 718 720 721 722 724 725 726 727 728 730 731 731 732 733 733 734 735 735 736 737 737 738 739 740 740 741 743 744 745 746 746 747 748 749 750 751 751 752 753 754 754 755 755 756 757 757 757 758 758 757 757 757 757 757 757 757 756 756 756 756 755 754 753 752 751 750 749 748 747 745 743 741 739 737 735 733 730 728 725 722 720 718
717 717 718 719 721 722 723 724 726 727 728 729 730 731 731 732 733 733 734 735 735 735 736 736 737 738 738 739 740 741 742 743 744 744 746 747 747 748 749 750 751 752 753 753 754 754 755 756 756 757 757 757 756 757 757 757 756 756 755 755 755 755 754 754 753 752 752 751 750 749 748 747 745 744 742 740 738 736 734 732 729 727 724 721 719
717 718 719 720 721 723 724 725 726 728 729 730 730 731 732 732 733 733 734 734 735 735 735 735 736 736 737 738 738 739 740 741 742 742 744 745 745 746 748 749 750 751 751 752 753 753 754 755 755 756 756 756 756 756 756 756 756 755 755 754 754 754 753 753 752 752 751 751 750 749 748 747 746 744 743 741 739 737 735 733 730 728 726 723 721
718 719 720 721 722 723 725 726 727 728 729 730 730 731 732 732 733 733 734 734 734 735 734 735 735 735 735 736 737 737 738 739 740 741 742 743 744 745 746 747 748 750 750 751 751 752 753 754 754 754 755 755 755 755 755 755 755 754 754 753 753 752 752 752 751 751 751 750 749 749 748 747 746 745 743 741 740 738 736 734 732 729 727 725 722
719 720 721 722 723 724 725 726 727 728 729 730 730 731 731 732 733 733 733 734 734 734 734 734 734 734 735 735 735 736 737 737 738 739 740 742 743 744 745 746 747 748 749 749 750 751 751 752 753 753 753 754 754 755 755 754 754 754 753 753 752 751 751 751 750 750 750 750 749 749 748 747 746 745 744 742 741 739 737 735 733 731 729 727 724
720 721 721 722 723 724 725 726 727 728 728 729 729 730 731 732 732 732 733 733 732 732 732 732 732 733 733 733 734 735 735 736 736 738 739 740 741 742 743 744 745 746 747 748 748 749 750 751 751 752 752 753 753 754 754 754 754 754 753 752 751 751 750 749 749 749 750 749 749 749 748 747 746 745 744 743 741 739 738 736 735 733 731 728 726
720 721 722 722 723 724 725 726 727 727 728 728 729 730 731 731 731 732 732 732 731 731 731 731 731 731 731 731 732 733 733 734 735 736 737 738 739 740 741 742 743 744 745 746 746 747 748 749 749 750 751 751 752 752 753 753 753 753 752 752 751 750 749 749 749 749 749 749 749 749 748 747 746 745 744 743 742 740 739 737 736 734 732 731 728